Location: Ambrosina
(19.9365°S, 43.9833°W)
Time: 09:33:51
(UTC+00:00)

CZ-3B R/B - Pass Details

Date: 11 May 2021
Orbit: 156 x 4233 km, 25.6° (Epoch: 22 June)

Event Time Altitude Azimuth Distance (km) Brightness Sun altitude
Rises 22:15:20 0° 252° (WSW) 8,273 8.5 -25.0°
Reaches altitude 10° 22:22:15 10° 254° (WSW) 6,670 7.9 -26.6°
Maximum altitude 22:40:54 61° 329° (NNW) 2,072 4.5 -30.9°
Enters shadow 22:44:47 38° 31° (NNE) 2,103 4.3 -31.8°
